Home > Weather > Arica > Past weeks

Flag for Chile Weather for the Past 2 Weeks in Arica, Chile

Now
66 °F

Clear.


Feels Like: 66 °F
Forecast: 63 / 74 °F
Wind: 1 mph from Southeast

Location: Arica Airport

Current Time: May 5, 2016 at 10:43:20 PM

Latest Report: May 5, 2016 at 10:00 PM


Visibility: 10 mi

Pressure: 30.01 "Hg

Humidity: 73%

Dew Point: 57 °F

Location of AricaLocation

Historic Weather in Arica — Graph

°F

Arica Temperature Yesterday

Maximum temperature yesterday: 72 °F (at 11:00 AM)
Minimum temperature yesterday: 63 °F (at 1:00 AM)
Average temperature yesterday: 68 °F

High & Low Weather Summary for the Past Weeks

 TemperatureHumidityPressure
High73 °F (Apr 22, 12:00 PM)83% (May 2, 4:00 AM)30.07 "Hg (May 2, 4:00 AM)
Low59 °F (Apr 23, 7:00 AM)53% (Apr 25, 3:00 PM)29.80 "Hg (Apr 30, 6:00 AM)
Average68 °F68%29.95 "Hg
* Reported Apr 20 9:00 PM — May 5 9:00 PM, Arica, Weather by CustomWeather, © 2016

Note: Actual official high and low records may vary slightly from our data, if they occured in-between our weather recording intervals... More about our weather records

Advertising

Arica Weather History for the Previous 24 Hours

Scroll right to see more
 ConditionsComfort  
Time TempWeatherWind HumidityBarometerVisibility
9:00 PM
Thu, May 5
66 °FClear.2 mph78%29.98 "Hg10 mi
8:00 PM68 °FSunny.5 mph73%29.95 "Hg10 mi
7:00 PM68 °FSunny.9 mph73%29.92 "Hg10 mi
6:00 PM72 °FSunny.9 mph65%29.92 "Hg10 mi
5:00 PM70 °FSunny.12 mph69%29.92 "Hg10 mi
4:00 PM72 °FSunny.10 mph65%29.89 "Hg10 mi
3:00 PM72 °FSunny.10 mph61%29.92 "Hg10 mi
2:00 PM73 °FSunny.9 mph61%29.95 "Hg10 mi
1:00 PM72 °FPartly sunny.9 mph65%29.98 "HgN/A
12:00 PM72 °FOvercast.5 mph65%30.01 "HgN/A
11:00 AM70 °FOvercast.2 mph69%30.01 "HgN/A
10:00 AM68 °FOvercast.No wind69%30.01 "HgN/A
9:00 AM68 °FOvercast.2 mph69%29.98 "HgN/A
8:00 AM66 °FOvercast.5 mph78%29.98 "Hg5 mi
7:00 AM68 °FOvercast.2 mph69%29.95 "HgN/A
6:00 AM66 °FOvercast.2 mph73%29.95 "HgN/A
5:00 AM66 °FOvercast.5 mph73%29.98 "HgN/A
4:00 AM63 °FPassing clouds.5 mph73%29.98 "HgN/A
3:00 AM66 °FClear.6 mph73%29.98 "Hg10 mi
2:00 AM64 °FClear.6 mph73%30.01 "Hg10 mi
1:00 AM66 °FClear.2 mph78%30.01 "Hg10 mi
12:00 AM66 °FClear.No wind68%30.01 "Hg10 mi
11:00 PM
Wed, May 4
66 °FClear.2 mph73%30.01 "Hg10 mi
10:00 PM68 °FClear.No wind73%29.98 "Hg10 mi
Weather by CustomWeather, © 2016

See weather overviewHow to use our weather pages